SEH100 LGSR-LGIR

Flight info

Callsign SEH100
Flight time 0h 31m
Altitude 11000
Route GIVIS J62 NAVUS
Aircraft A320/M-SDE3FGHIRWY/LB1

Departure

Time 2026-05-08 15:13
Airport Santorini International Airport (LGSR)

Arrival

Time 2026-05-08 15:45
Airport Heraklion International Nikos Kazantzakis Airport (LGIR)
Time Latitude Longitude Altitude Speed Heading
2026-05-08 14:46 36.40303 25.47396 90 ft 0 kts 249°
2026-05-08 15:05 36.40307 25.47408 92 ft 4 kts 253°
2026-05-08 15:05 36.40311 25.47441 90 ft 4 kts 281°
2026-05-08 15:05 36.40300 25.47466 90 ft 3 kts 337°
2026-05-08 15:05 36.40295 25.47469 93 ft 1 kts 339°
2026-05-08 15:06 36.40293 25.47470 93 ft 0 kts 339°
2026-05-08 15:08 36.40297 25.47468 91 ft 4 kts 339°
2026-05-08 15:08 36.40333 25.47451 92 ft 5 kts 339°
2026-05-08 15:09 36.40359 25.47438 90 ft 3 kts 338°
2026-05-08 15:09 36.40402 25.47437 90 ft 8 kts 29°
2026-05-08 15:09 36.40434 25.47488 90 ft 6 kts 37°
2026-05-08 15:09 36.40471 25.47486 92 ft 5 kts 342°
2026-05-08 15:10 36.40518 25.47464 91 ft 10 kts 339°
2026-05-08 15:10 36.40593 25.47428 91 ft 12 kts 339°
2026-05-08 15:10 36.40666 25.47393 91 ft 10 kts 339°
2026-05-08 15:10 36.40736 25.47360 91 ft 16 kts 339°
2026-05-08 15:11 36.40811 25.47344 91 ft 9 kts 26°
2026-05-08 15:11 36.40824 25.47356 91 ft 0 kts 44°
2026-05-08 15:11 36.40825 25.47362 92 ft 5 kts 59°
2026-05-08 15:11 36.40839 25.47402 92 ft 4 kts 67°
2026-05-08 15:12 36.40848 25.47431 93 ft 5 kts 75°
2026-05-08 15:12 36.40841 25.47470 95 ft 3 kts 120°
2026-05-08 15:12 36.40816 25.47491 94 ft 7 kts 154°
2026-05-08 15:12 36.40720 25.47541 93 ft 40 kts 158°
2026-05-08 15:13 36.40218 25.47781 90 ft 110 kts 159°
2026-05-08 15:13 36.39339 25.48219 69 ft 163 kts 156°
2026-05-08 15:13 36.38210 25.48749 493 ft 176 kts 159°
2026-05-08 15:13 36.37109 25.49249 1488 ft 159 kts 156°
2026-05-08 15:14 36.36189 25.49858 2359 ft 143 kts 153°
2026-05-08 15:14 36.35368 25.50479 3014 ft 136 kts 150°
2026-05-08 15:14 36.34598 25.51176 3492 ft 140 kts 147°
2026-05-08 15:14 36.33815 25.51933 3898 ft 147 kts 146°
2026-05-08 15:15 36.33010 25.52734 4331 ft 149 kts 148°
2026-05-08 15:15 36.32137 25.53447 4736 ft 153 kts 156°
2026-05-08 15:15 36.31181 25.54061 5168 ft 155 kts 159°
2026-05-08 15:15 36.30216 25.54645 5600 ft 156 kts 160°
2026-05-08 15:16 36.29213 25.55255 5949 ft 163 kts 161°
2026-05-08 15:16 36.28143 25.55706 6351 ft 162 kts 181°
2026-05-08 15:16 36.27050 25.55697 6807 ft 152 kts 201°
2026-05-08 15:16 36.26085 25.55280 7206 ft 145 kts 219°
2026-05-08 15:17 36.25232 25.54617 7576 ft 144 kts 226°
2026-05-08 15:17 36.24482 25.53852 8048 ft 137 kts 234°
2026-05-08 15:17 36.23832 25.52991 8421 ft 137 kts 241°
2026-05-08 15:17 36.23290 25.52048 8901 ft 131 kts 245°
2026-05-08 15:18 36.22544 25.51291 9212 ft 156 kts 218°
2026-05-08 15:18 36.21537 25.50601 9442 ft 166 kts 223°
2026-05-08 15:18 36.20616 25.49926 10232 ft 146 kts 222°
2026-05-08 15:18 36.19667 25.49334 10459 ft 165 kts 218°
2026-05-08 15:19 36.18572 25.48733 10813 ft 169 kts 215°
2026-05-08 15:19 36.17518 25.48153 11286 ft 168 kts 220°
2026-05-08 15:19 36.16489 25.47384 11463 ft 176 kts 226°
2026-05-08 15:19 36.15432 25.46478 11522 ft 193 kts 223°
2026-05-08 15:20 36.14266 25.45539 11151 ft 208 kts 224°
2026-05-08 15:20 36.13278 25.44262 11127 ft 205 kts 249°
2026-05-08 15:20 36.12803 25.42619 11128 ft 205 kts 255°
2026-05-08 15:20 36.12049 25.41090 11118 ft 216 kts 232°
2026-05-08 15:21 36.10748 25.40065 11120 ft 233 kts 205°
2026-05-08 15:21 36.09099 25.39755 11116 ft 241 kts 198°
2026-05-08 15:21 36.07465 25.39367 11113 ft 238 kts 202°
2026-05-08 15:21 36.05864 25.38876 11117 ft 237 kts 204°
2026-05-08 15:22 36.04288 25.38369 11113 ft 237 kts 204°
2026-05-08 15:22 36.02691 25.37864 11114 ft 237 kts 203°
2026-05-08 15:22 36.01091 25.37373 11113 ft 237 kts 203°
2026-05-08 15:22 35.99483 25.36896 11110 ft 238 kts 202°
2026-05-08 15:23 35.97874 25.36428 11111 ft 238 kts 202°
2026-05-08 15:23 35.96261 25.35963 11115 ft 238 kts 202°
2026-05-08 15:23 35.94649 25.35502 11112 ft 238 kts 202°
2026-05-08 15:23 35.93032 25.35042 11116 ft 238 kts 202°
2026-05-08 15:24 35.91420 25.34584 11117 ft 238 kts 202°
2026-05-08 15:24 35.89806 25.34128 11118 ft 238 kts 202°
2026-05-08 15:24 35.88192 25.33674 11119 ft 238 kts 202°
2026-05-08 15:24 35.86580 25.33217 11118 ft 238 kts 202°
2026-05-08 15:25 35.84967 25.32759 11118 ft 238 kts 202°
2026-05-08 15:25 35.83353 25.32304 11118 ft 238 kts 202°
2026-05-08 15:25 35.81738 25.31850 11120 ft 238 kts 202°
2026-05-08 15:25 35.80124 25.31397 11123 ft 238 kts 202°
2026-05-08 15:26 35.78509 25.30944 11123 ft 238 kts 202°
2026-05-08 15:26 35.76895 25.30489 11126 ft 238 kts 202°
2026-05-08 15:26 35.75279 25.30034 11130 ft 238 kts 202°
2026-05-08 15:26 35.73663 25.29579 11133 ft 238 kts 202°
2026-05-08 15:27 35.72048 25.29126 11132 ft 238 kts 202°
2026-05-08 15:27 35.70435 25.28673 11100 ft 238 kts 202°
2026-05-08 15:27 35.68768 25.28196 10428 ft 255 kts 201°
2026-05-08 15:27 35.66981 25.27680 9673 ft 273 kts 200°
2026-05-08 15:28 35.65081 25.27137 9014 ft 284 kts 199°
2026-05-08 15:28 35.63245 25.26624 8604 ft 286 kts 199°
2026-05-08 15:28 35.61306 25.26091 8207 ft 285 kts 198°
2026-05-08 15:28 35.59370 25.25561 7827 ft 285 kts 198°
2026-05-08 15:29 35.57441 25.25032 7441 ft 284 kts 198°
2026-05-08 15:29 35.55502 25.24603 7156 ft 284 kts 185°
2026-05-08 15:29 35.53613 25.25226 7039 ft 285 kts 149°
2026-05-08 15:29 35.52297 25.26990 6840 ft 283 kts 117°
2026-05-08 15:30 35.51561 25.29239 6281 ft 285 kts 108°
2026-05-08 15:30 35.50851 25.31506 5774 ft 284 kts 115°
2026-05-08 15:30 35.49873 25.33592 5315 ft 280 kts 126°
2026-05-08 15:30 35.48642 25.35418 4864 ft 276 kts 135°
2026-05-08 15:31 35.47280 25.36988 4679 ft 261 kts 142°
2026-05-08 15:31 35.45893 25.38317 4527 ft 244 kts 146°
2026-05-08 15:31 35.44502 25.39462 4011 ft 245 kts 150°
2026-05-08 15:31 35.42912 25.40141 3483 ft 239 kts 184°
2026-05-08 15:32 35.41382 25.39821 3335 ft 213 kts 200°
2026-05-08 15:32 35.40077 25.39229 3172 ft 194 kts 205°
2026-05-08 15:32 35.38853 25.38595 2993 ft 188 kts 205°
2026-05-08 15:32 35.37653 25.37972 2666 ft 187 kts 205°
2026-05-08 15:33 35.36459 25.37370 2289 ft 185 kts 203°
2026-05-08 15:33 35.35266 25.36785 1986 ft 183 kts 202°
2026-05-08 15:33 35.34083 25.36218 2046 ft 182 kts 202°
2026-05-08 15:33 35.32999 25.35429 2269 ft 185 kts 231°
2026-05-08 15:34 35.32611 25.33971 2220 ft 183 kts 269°
2026-05-08 15:34 35.32695 25.32416 2215 ft 184 kts 276°
2026-05-08 15:34 35.32861 25.30870 2160 ft 184 kts 277°
2026-05-08 15:34 35.33030 25.29326 1992 ft 182 kts 276°
2026-05-08 15:35 35.33184 25.27792 1622 ft 182 kts 275°
2026-05-08 15:35 35.33325 25.26259 1220 ft 179 kts 275°
2026-05-08 15:35 35.33453 25.24770 1095 ft 174 kts 275°
2026-05-08 15:35 35.33567 25.23328 930 ft 166 kts 275°
2026-05-08 15:36 35.33669 25.21931 575 ft 163 kts 277°
2026-05-08 15:36 35.33738 25.21031 413 ft 157 kts 278°
2026-05-08 15:36 35.33876 25.19320 189 ft 146 kts 277°
2026-05-08 15:36 35.33980 25.18145 121 ft 129 kts 278°
2026-05-08 15:37 35.34061 25.16924 521 ft 158 kts 277°
2026-05-08 15:37 35.34162 25.15477 1162 ft 179 kts 275°
2026-05-08 15:37 35.34362 25.13948 1807 ft 185 kts 285°
2026-05-08 15:37 35.35118 25.12683 2406 ft 190 kts 325°
2026-05-08 15:38 35.36361 25.12122 2901 ft 194 kts 353°
2026-05-08 15:38 35.37689 25.12376 3000 ft 195 kts 16°
2026-05-08 15:38 35.38958 25.12952 3008 ft 193 kts 20°
2026-05-08 15:38 35.40055 25.13884 3003 ft 196 kts 53°
2026-05-08 15:39 35.40616 25.15413 3016 ft 198 kts 72°
2026-05-08 15:39 35.40991 25.17039 3012 ft 198 kts 75°
2026-05-08 15:39 35.41336 25.18675 3012 ft 198 kts 75°
2026-05-08 15:39 35.41481 25.20343 3012 ft 198 kts 91°
2026-05-08 15:40 35.41401 25.22029 3014 ft 198 kts 95°
2026-05-08 15:40 35.41288 25.23716 3011 ft 199 kts 95°
2026-05-08 15:40 35.41171 25.25407 3010 ft 199 kts 95°
2026-05-08 15:40 35.41054 25.27096 3010 ft 199 kts 95°
2026-05-08 15:41 35.40935 25.28786 3015 ft 199 kts 96°
2026-05-08 15:41 35.40475 25.30353 3005 ft 197 kts 131°
2026-05-08 15:41 35.39370 25.31282 3018 ft 194 kts 160°
2026-05-08 15:41 35.38079 25.31640 3006 ft 188 kts 184°
2026-05-08 15:42 35.36844 25.31239 3012 ft 181 kts 206°
2026-05-08 15:42 35.35702 25.30629 2898 ft 177 kts 206°
2026-05-08 15:42 35.34579 25.30024 2650 ft 176 kts 205°
2026-05-08 15:42 35.33547 25.29259 2382 ft 174 kts 234°
2026-05-08 15:43 35.33264 25.27898 2169 ft 171 kts 273°
2026-05-08 15:43 35.33357 25.26445 1998 ft 166 kts 274°
2026-05-08 15:43 35.33458 25.25079 1793 ft 162 kts 273°
2026-05-08 15:43 35.33566 25.23681 1342 ft 171 kts 275°
2026-05-08 15:44 35.33718 25.22195 895 ft 173 kts 276°
2026-05-08 15:44 35.33783 25.20777 616 ft 163 kts 271°
2026-05-08 15:44 35.33867 25.19428 264 ft 155 kts 277°
2026-05-08 15:44 35.33969 25.18183 112 ft 134 kts 276°
2026-05-08 15:45 35.34020 25.17366 90 ft 35 kts 276°
2026-05-08 15:45 35.34010 25.17142 93 ft 19 kts 245°
2026-05-08 15:45 35.33981 25.17071 90 ft 0 kts 244°
2026-05-08 15:45 35.33981 25.17070 90 ft 0 kts 244°
2026-05-08 15:46 35.33979 25.17067 90 ft 0 kts 236°
2026-05-08 15:46 35.33954 25.17060 90 ft 6 kts 165°
2026-05-08 15:46 35.33941 25.17095 90 ft 4 kts 101°
2026-05-08 15:46 35.33938 25.17123 90 ft 3 kts 96°
2026-05-08 15:47 35.33936 25.17153 90 ft 6 kts 96°
2026-05-08 15:47 35.33931 25.17224 91 ft 11 kts 94°
2026-05-08 15:47 35.33925 25.17311 93 ft 9 kts 94°
2026-05-08 15:47 35.33920 25.17384 91 ft 8 kts 95°
2026-05-08 15:48 35.33912 25.17502 94 ft 6 kts 95°
2026-05-08 15:48 35.33909 25.17546 94 ft 5 kts 95°
2026-05-08 15:48 35.33906 25.17584 91 ft 4 kts 95°
2026-05-08 15:49 35.33898 25.17611 91 ft 3 kts 121°
2026-05-08 15:49 35.33888 25.17620 92 ft 1 kts 150°
2026-05-08 15:49 35.33857 25.17622 91 ft 4 kts 202°
2026-05-08 15:49 35.33850 25.17608 92 ft 2 kts 252°
2026-05-08 15:50 35.33851 25.17587 93 ft 1 kts 277°
2026-05-08 15:50 35.33854 25.17572 91 ft 5 kts 291°
2026-05-08 15:50 35.33863 25.17556 92 ft 0 kts 308°
2026-05-08 15:50 35.33868 25.17550 92 ft 1 kts 310°
2026-05-08 15:51 35.33869 25.17548 91 ft 0 kts 311°